RH
28 28 29 29 30 30 31 33 35 36 38 38 38 38 38 37 37 36 35 35 35 36 37 36 33 32 31 30 31 31 35 43 48 53 56 53 50 52 58 69 77 80 87 94 92 91 93 96 101 100 98 100 100 100 99 98 97 96 97 99 99 99 93 83 75 71 71 71 68 66 65 65 64 62 62 63 65 66 65 62 60 62 68 73 76
26 26 27 28 29 30 31 33 35 37 39 40 41 42 42 42 42 41 40 40 39 41 45 45 42 39 36 34 33 33 35 40 45 48 54 57 54 51 51 59 74 80 80 87 92 93 93 94 97 97 98 99 99 100 101 99 96 95 97 100 99 100 98 92 85 77 72 70 69 67 66 64 62 59 58 57 58 60 61 62 61 64 67 69 71
24 25 26 27 28 30 31 33 37 39 41 43 44 44 44 45 45 45 44 43 43 44 48 50 49 46 44 40 37 35 35 36 41 43 47 55 59 59 54 51 61 75 80 83 90 93 94 93 91 91 92 92 94 97 98 98 95 91 94 100 100 99 99 94 85 76 70 71 71 66 62 61 59 56 52 52 53 54 56 59 61 64 66 66 66
25 26 28 28 30 31 32 34 35 38 42 44 44 46 47 48 47 48 47 44 44 47 50 52 52 51 50 48 45 40 38 36 37 39 40 48 57 62 63 56 53 62 74 81 86 91 94 93 91 90 88 87 91 96 97 99 100 94 91 97 101 100 99 96 88 79 74 76 77 71 66 64 59 54 53 54 53 52 52 53 56 60 63 64 64
25 26 28 30 32 32 33 36 35 36 38 40 44 47 47 47 47 47 48 47 46 49 53 54 53 53 53 53 52 48 43 40 39 40 38 41 51 60 66 67 59 54 62 75 83 89 92 92 93 92 89 89 95 99 99 100 101 99 94 92 97 100 100 97 93 90 83 80 81 78 75 71 63 61 63 62 59 55 53 52 52 54 58 61 62
23 25 28 30 33 34 34 35 34 34 35 37 46 50 44 42 43 46 48 49 51 54 56 57 55 53 53 55 56 55 50 45 42 43 42 41 45 53 61 68 68 60 58 65 77 89 92 92 95 94 90 91 97 100 101 101 100 101 99 95 94 97 100 99 96 98 93 86 82 78 76 74 71 72 70 65 62 60 57 54 53 53 55 59 61
22 24 28 30 31 33 33 31 31 32 33 33 39 44 40 37 40 45 46 45 50 57 59 60 59 57 55 56 57 57 57 54 49 45 44 44 44 47 52 60 67 68 64 61 69 85 92 92 95 97 94 92 94 97 99 98 98 100 99 99 97 95 98 100 97 99 99 93 87 81 77 76 76 76 74 70 68 64 61 58 56 55 55 58 61
21 24 26 29 30 30 30 29 29 30 29 27 26 27 29 32 36 40 42 41 44 51 57 59 59 59 59 59 58 58 59 59 58 54 49 46 45 46 49 53 59 65 68 67 67 77 88 90 91 93 96 95 91 92 95 95 98 98 96 96 97 93 94 98 97 99 100 97 94 91 87 84 82 80 77 75 71 66 64 61 58 56 56 56 60
23 25 27 29 29 28 28 28 27 25 23 22 20 19 20 23 27 27 29 35 40 44 50 53 54 54 56 59 60 60 61 61 62 62 59 53 49 49 49 51 56 60 65 69 70 72 79 87 90 91 93 95 92 92 94 96 99 100 98 96 93 90 90 95 98 99 100 100 99 98 96 93 89 86 83 80 75 70 66 63 60 59 57 55 56
25 27 28 29 27 25 25 24 23 21 19 20 20 21 20 20 22 21 22 27 33 39 44 49 52 52 51 52 56 58 60 61 62 63 64 62 58 56 54 53 55 59 63 67 70 70 72 78 85 88 88 91 94 95 95 97 99 99 101 99 96 93 89 90 96 100 99 100 101 99 100 99 94 88 86 84 80 77 72 68 66 63 60 57 55
27 28 28 29 27 24 22 20 20 20 19 20 21 22 21 21 21 21 22 23 25 31 38 44 49 51 50 49 49 52 54 57 59 60 62 63 64 63 62 59 57 57 60 64 68 69 71 72 74 81 87 88 90 94 94 96 97 97 99 100 99 99 94 87 90 99 101 100 100 100 100 99 97 92 88 86 84 82 79 75 72 68 64 60 56
28 30 29 27 26 24 22 19 19 20 20 21 22 23 23 23 22 21 22 23 24 25 27 32 37 41 46 47 46 46 47 48 51 54 57 59 62 63 64 65 63 60 59 62 65 70 74 74 71 75 84 87 87 90 92 94 95 95 97 99 99 100 99 92 87 91 98 100 100 100 100 100 99 97 94 92 90 88 87 83 79 75 68 63 59
27 27 27 25 25 25 23 20 20 21 22 22 22 23 24 24 24 23 23 24 25 25 24 24 26 30 34 38 41 42 42 42 43 46 50 54 57 60 62 63 64 64 63 62 62 65 71 75 74 74 77 81 83 86 89 91 93 94 94 96 97 98 100 98 93 87 88 96 100 99 100 100 99 99 99 97 96 95 94 90 86 81 75 70 66
25 24 25 25 25 25 23 22 22 22 22 23 23 23 23 24 25 25 25 24 25 26 26 25 24 25 27 30 34 37 40 42 42 44 46 48 52 55 57 59 61 63 65 65 64 63 65 71 75 75 75 76 78 81 83 87 90 92 93 93 95 96 97 99 99 92 84 90 99 100 99 100 100 100 101 99 97 97 97 94 90 87 82 79 74
24 24 26 26 25 25 25 24 24 23 23 24 24 24 23 23 25 26 26 26 26 25 25 26 25 24 24 25 28 33 38 41 43 45 46 47 48 49 52 55 57 60 62 64 65 64 64 67 71 74 75 75 74 76 78 80 84 87 90 92 92 93 95 96 98 97 90 90 98 100 99 100 100 100 100 99 98 98 97 96 94 92 90 85 78
25 25 26 27 27 26 26 26 25 24 24 24 24 25 25 24 25 26 27 27 27 27 26 26 26 25 25 25 26 31 37 40 42 43 44 46 47 47 48 50 53 56 59 60 61 63 64 65 66 69 72 73 72 72 74 75 78 81 83 87 90 92 93 92 92 95 94 93 98 101 99 98 100 101 100 100 100 99 98 97 97 96 94 89 82
26 27 27 28 28 28 27 27 26 25 25 25 25 26 27 27 26 26 27 28 29 29 29 28 28 27 27 27 28 31 35 38 40 41 42 42 43 44 45 45 47 49 52 55 57 59 62 64 64 64 65 69 69 68 70 72 73 75 77 80 85 89 90 88 86 87 91 94 98 100 97 94 97 100 100 100 100 100 99 99 99 98 96 92 86
29 29 29 30 30 30 30 28 28 27 27 27 27 27 28 28 29 28 28 29 30 31 32 32 31 30 29 28 31 34 36 36 38 40 41 41 42 42 42 42 42 43 44 48 53 57 59 61 63 62 61 63 65 64 65 67 69 71 72 74 77 81 86 87 87 86 88 92 94 96 96 94 95 99 100 100 100 100 100 100 100 100 100 97 90
32 31 31 32 32 32 31 30 29 29 29 29 28 29 29 30 30 31 31 31 32 34 34 35 35 34 32 32 34 37 39 38 37 36 37 39 40 40 40 40 40 40 40 43 49 55 59 60 62 63 61 60 61 61 60 61 64 65 67 69 72 75 78 82 86 87 88 90 91 92 94 94 95 98 100 100 101 100 100 100 100 99 100 99 95
34 34 34 35 35 34 33 32 32 31 31 31 31 30 31 32 33 33 34 34 34 35 35 36 37 37 36 37 38 38 39 39 38 36 35 36 37 38 38 38 38 38 39 40 44 51 57 61 62 63 63 62 60 59 58 58 59 61 62 64 67 71 73 75 78 82 86 88 87 88 90 92 94 97 99 99 100 100 99 99 101 100 100 99 99
36 37 37 37 37 36 35 34 34 34 34 34 33 33 33 34 35 35 36 36 35 35 36 37 38 38 39 39 39 38 37 38 39 39 37 35 35 36 36 37 37 36 36 37 38 43 50 56 60 62 64 64 63 61 59 57 57 58 59 60 63 66 69 71 72 74 79 82 83 82 83 86 88 92 96 97 97 98 98 97 98 99 101 99 99
40 40 40 40 40 39 38 37 37 37 37 37 36 36 36 36 37 37 37 37 37 37 38 38 39 39 38 38 38 38 38 40 42 42 42 39 38 37 37 37 37 35 35 34 34 36 40 46 52 56 59 61 62 62 61 59 57 56 57 58 60 63 66 68 69 70 72 75 79 81 82 82 83 87 93 96 97 97 96 96 95 95 100 101 99
43 43 43 43 42 42 41 41 41 41 40 40 39 39 40 39 39 37 37 37 39 41 40 40 39 38 38 37 38 39 41 44 46 47 47 46 44 42 41 39 37 36 35 34 33 33 35 39 44 47 51 54 56 59 60 60 58 56 56 57 58 60 62 64 66 67 68 69 72 76 79 81 82 84 88 92 97 99 98 96 94 93 95 99 101
47 46 46 46 44 45 45 45 45 45 44 43 43 43 43 42 40 38 38 39 41 42 42 41 39 38 38 39 40 43 45 48 51 51 50 49 47 45 43 42 39 38 36 35 34 34 33 35 39 42 44 46 49 52 54 57 57 56 54 54 55 55 56 59 62 65 66 66 67 70 73 77 78 80 81 85 91 96 99 98 97 97 95 95 99
50 50 48 48 48 48 49 49 49 48 47 47 48 48 46 44 42 40 40 41 43 44 43 42 40 39 39 41 44 47 49 50 51 51 50 48 48 46 45 43 42 41 40 38 37 36 34 34 36 39 42 43 45 47 49 51 54 55 53 51 51 50 50 51 54 58 61 63 65 66 69 72 75 76 76 78 81 88 96 100 100 100 98 95 95
52 52 51 51 51 51 52 52 51 51 50 51 52 51 48 46 44 43 43 44 46 47 46 43 41 41 42 44 46 49 50 49 49 49 48 48 49 49 48 47 45 44 42 41 39 39 39 39 39 40 43 44 45 46 46 47 49 52 53 52 51 50 47 45 45 49 53 57 61 64 67 69 71 73 74 74 75 78 85 95 100 100 100 98 96
54 54 53 53 54 55 55 55 54 53 53 53 53 53 51 49 46 45 45 46 47 48 47 44 42 42 44 46 48 50 49 48 48 49 50 51 51 52 52 50 48 46 45 44 45 45 44 43 43 42 42 43 44 45 45 47 48 49 49 52 55 54 52 47 42 41 43 47 53 60 67 69 69 71 72 72 73 74 75 83 93 99 100 100 99
57 56 56 56 56 57 57 57 57 57 57 56 55 55 55 52 50 48 48 48 49 49 47 45 43 43 45 48 50 51 49 48 50 53 54 54 54 54 54 52 51 51 51 51 50 48 46 45 43 42 41 41 42 43 43 46 48 49 49 50 52 53 53 50 45 40 38 39 42 49 59 66 68 69 72 72 72 72 72 74 81 91 98 100 101
60 59 59 59 59 59 59 60 61 61 61 59 58 57 56 55 54 53 51 49 50 49 48 46 45 44 46 49 51 50 48 49 53 56 57 56 55 55 56 56 57 58 57 56 54 52 50 47 46 44 42 41 41 41 42 43 45 47 49 50 51 49 49 50 48 43 39 37 37 39 44 52 60 65 68 72 72 71 72 71 73 81 92 98 100
63 63 62 61 61 61 61 63 64 65 65 63 60 58 57 58 58 57 54 52 51 49 48 48 47 44 45 49 51 49 49 52 55 57 58 56 55 56 60 63 64 62 60 58 57 54 51 49 48 46 44 43 42 41 41 40 41 44 48 49 50 50 49 48 48 47 44 40 38 37 37 40 48 54 59 64 69 71 71 70 70 74 83 92 97
66 66 64 63 62 63 64 67 68 69 68 66 62 60 59 60 62 61 58 55 52 50 49 50 49 47 45 46 48 50 52 55 57 58 58 57 58 60 64 67 67 65 62 59 57 55 53 51 50 49 48 47 45 43 43 41 41 45 48 48 47 48 49 48 48 47 46 43 41 39 37 36 39 43 48 53 59 65 69 69 69 71 76 84 92
68 67 65 64 64 66 68 70 71 71 70 68 65 64 62 63 64 65 63 59 55 51 50 51 51 48 44 44 48 53 57 58 58 57 58 61 62 63 66 70 70 67 64 61 58 56 55 54 53 52 51 50 48 48 47 45 44 45 46 47 46 45 44 43 43 44 44 44 43 41 39 37 35 35 39 43 48 55 61 65 68 70 72 77 86
69 67 67 67 67 69 71 71 71 72 71 71 69 67 65 66 67 69 68 63 56 51 50 51 52 48 44 45 50 56 59 60 58 58 60 63 65 66 68 71 72 70 66 62 60 59 58 57 56 55 54 53 52 51 50 50 48 47 47 49 48 45 43 41 39 40 41 42 42 42 41 39 37 34 32 33 38 43 50 58 66 71 72 72 78
68 68 68 69 70 71 72 72 73 74 74 74 72 69 69 69 70 71 69 64 57 52 51 53 52 47 44 46 52 56 59 60 60 60 63 65 66 66 69 72 73 71 68 64 62 62 62 60 59 58 57 56 55 53 53 52 51 51 53 55 52 49 47 45 43 42 42 43 42 42 42 40 38 36 32 30 31 35 43 54 64 70 73 72 72
69 70 70 71 72 72 73 74 76 77 76 75 73 73 73 73 73 71 69 65 59 54 54 55 53 49 46 47 51 56 59 60 61 64 65 65 66 67 68 71 73 71 67 65 64 64 64 64 63 62 61 60 58 57 56 56 56 57 59 58 55 53 51 48 46 45 44 44 43 44 44 42 39 37 35 32 31 33 40 50 59 64 69 72 72
72 71 72 73 74 74 75 77 79 77 75 74 75 76 77 75 74 71 68 66 63 58 56 56 54 51 49 49 52 56 59 61 64 67 67 67 67 66 67 70 72 71 68 66 65 67 68 68 67 66 64 62 60 60 60 59 59 62 63 61 58 57 54 50 48 47 46 45 43 43 44 44 42 41 40 39 37 37 39 44 50 55 59 65 69
74 74 75 77 77 77 79 79 78 76 74 75 78 80 79 77 74 70 68 68 66 60 57 56 55 54 52 50 52 57 61 63 66 68 69 69 68 66 67 70 71 71 70 68 68 70 72 72 70 68 66 64 63 64 64 62 62 66 67 64 62 59 56 54 51 49 49 48 46 46 46 46 45 45 45 45 44 43 42 42 43 47 50 53 58
78 78 78 79 80 81 81 80 77 75 75 78 81 81 81 78 73 70 70 71 68 62 58 56 57 57 55 52 53 59 63 65 67 70 70 69 68 66 66 70 73 73 72 70 71 74 76 76 74 71 68 67 66 67 67 65 66 69 70 68 65 62 60 59 57 55 53 51 50 49 49 49 48 47 46 46 46 46 45 43 42 43 45 47 49
81 81 81 82 83 83 83 80 78 77 77 79 82 82 80 76 72 72 73 73 69 64 60 58 59 59 58 54 54 59 64 66 68 71 72 70 68 66 66 70 75 75 73 73 75 78 79 80 77 74 71 70 70 70 70 69 69 71 72 72 70 66 64 63 63 62 60 59 56 55 54 54 52 49 47 46 48 49 47 45 44 43 44 45 45
84 84 84 84 85 85 84 81 80 79 79 80 81 81 79 76 73 74 75 73 70 65 61 59 61 62 59 55 54 59 64 67 69 72 74 72 69 67 66 70 76 78 76 77 79 82 83 83 81 78 75 75 75 74 73 72 73 76 78 77 75 72 70 69 68 68 67 66 64 62 62 61 60 59 56 52 52 54 52 49 47 43 42 43 44
87 87 86 87 87 86 85 83 82 82 80 80 81 81 78 76 74 74 74 73 70 65 62 61 62 64 62 57 57 60 64 68 70 72 74 73 70 68 67 70 76 79 78 79 82 85 86 86 85 83 80 81 81 79 76 76 78 81 83 82 79 77 76 75 73 72 71 70 69 67 66 65 65 66 66 64 62 61 60 57 52 46 40 37 41
90 90 89 89 88 86 84 82 83 83 82 81 81 80 78 76 75 73 74 73 70 66 64 63 63 64 64 62 60 60 63 67 70 73 75 75 71 69 68 70 75 80 80 80 83 87 88 89 89 86 85 85 85 83 80 81 82 84 85 86 85 82 80 79 78 76 75 73 72 72 71 69 68 66 66 67 66 64 63 61 57 50 42 34 37
92 92 91 90 87 83 80 80 82 83 81 81 80 79 78 77 74 73 74 73 71 67 65 64 63 64 67 67 65 62 63 67 71 73 76 76 73 70 69 70 75 80 81 81 83 87 90 91 92 90 88 87 87 86 85 85 85 86 87 90 91 86 83 82 82 81 79 77 78 78 76 73 71 69 69 69 68 68 70 68 61 56 51 44 44
93 93 93 90 83 77 76 78 79 78 77 77 78 77 77 75 72 72 73 73 72 69 66 64 64 65 68 70 68 65 64 67 71 74 75 77 77 73 70 71 76 80 82 82 84 88 91 92 93 93 91 88 88 89 90 89 87 86 89 92 92 89 87 86 86 84 83 83 83 83 81 80 78 76 74 73 73 73 74 72 66 61 58 56 55
95 96 93 86 77 73 73 75 75 73 71 72 73 74 73 70 69 71 73 74 72 70 67 65 65 65 68 70 71 69 67 68 72 74 76 78 79 76 72 72 76 81 83 83 84 88 92 94 95 95 92 90 91 93 94 93 89 88 91 94 94 92 92 92 90 88 87 88 88 87 88 89 87 82 79 77 75 74 74 74 71 66 62 60 60
98 96 90 80 73 72 72 72 71 70 69 69 71 72 70 68 68 70 73 74 74 71 68 66 65 65 67 70 72 72 70 69 70 74 77 80 80 79 75 72 75 80 83 84 85 88 93 96 97 96 92 91 93 95 95 93 90 89 91 94 94 94 94 95 94 93 92 92 93 92 92 93 91 88 85 82 79 76 76 76 74 71 67 64 63
100 95 85 77 73 73 73 72 70 68 68 70 71 71 70 68 69 71 73 75 75 73 70 68 66 65 67 70 72 73 73 71 70 72 77 81 83 82 78 74 74 77 82 85 86 88 94 97 97 95 94 94 96 97 97 94 90 88 88 90 92 94 95 95 96 97 96 96 96 96 96 96 95 93 90 88 85 83 81 80 78 77 74 70 67
99 90 81 77 76 74 73 72 70 68 69 71 72 72 71 70 71 73 74 76 76 75 73 70 68 67 69 71 73 73 73 73 71 71 74 79 83 85 83 79 75 75 79 85 88 90 94 97 97 96 95 96 98 100 99 95 92 91 91 90 92 95 96 95 97 98 98 98 98 98 97 97 97 97 95 93 91 88 86 84 83 82 81 78 74
95 85 79 78 77 75 74 72 70 69 70 71 73 73 73 72 73 75 76 78 79 78 75 73 71 70 71 72 73 74 73 72 72 73 73 76 81 85 86 83 80 76 76 82 87 91 94 96 97 96 96 98 100 100 99 98 97 96 95 93 93 95 97 96 96 95 95 96 98 98 98 98 98 98 98 98 97 94 91 87 84 83 83 82 81
89 82 80 80 77 76 75 72 70 70 71 73 75 76 75 75 75 77 78 80 81 80 78 75 73 72 72 72 72 73 73 72 71 72 73 75 79 83 86 86 83 80 78 79 83 88 92 94 96 96 97 99 100 99 100 102 101 98 94 92 93 95 96 97 95 94 94 96 97 98 98 98 98 98 99 99 100 99 97 93 90 86 85 84 84
85 81 81 80 78 77 75 72 71 72 73 76 78 78 77 77 77 79 80 82 82 81 79 76 74 73 72 70 70 71 73 74 72 70 72 75 78 81 84 86 86 84 80 78 79 83 88 92 94 95 97 98 98 98 100 102 101 97 93 92 94 98 99 97 95 95 96 98 99 100 100 99 98 97 99 100 99 99 99 98 96 93 91 89 87